Погода в Хатинохе

Япония     40°30′13″N   141°30′28″E
темп.,
°C
ветер,
м/с
пор.,
м/с
влажн.,
%
обл.,
%
осадки,
мм/ч
давл.,
гПа
погр.,
м
25 октября, пн
пн2500:00+8юз37840 0.0 1026136
03:00+8юз46840 0.0 1026128
06:00+8юз36840 0.0 1027111
09:00+14юз34610 0.0 1026332
12:00+17ююв124753 0.0 10251296
15:00+15в3462100 0.0 1023386
18:00+11ююв34769 0.0 1024130
21:00+11ююз237891 0.0 102454
26 октября, вт
вт2600:00+10ю2378100 0.0 102376
03:00+11ююз2278100 0.0 102161
06:00+11юз1177100 0.0 102044
09:00+13ю1174100 0.0 102084
12:00+12юв61190100 3.8 1019878
15:00+11с1187100 5.4 1018249
18:00+11сз239137 0.1 1016184
21:00+9з239353 0.1 1016181
27 октября, ср
ср2700:00+8зюз34925 0.0 1015109
03:00+7юз35904 0.0 101599
06:00+7юз4790100 0.0 1016156
09:00+12юз4883100 0.0 1016308
12:00+15юз4770100 0.0 1015654
15:00+15ююз3673100 0.0 1014516
18:00+12ююз3590100 0.1 1015134
21:00+11ююз3791100 0.1 1015208
28 октября, чт
чт2800:00+11ююз359115 0.0 1014111
03:00+10ююз47915 0.0 1013144
06:00+11юз378981 0.2 1014173
09:00+13зюз497899 0.3 1016695
12:00+16зюз69485 0.0 10141856
15:00+14зюз61065100 0.1 10151350
18:00+10зюз377570 0.0 1017327
21:00+8зюз39795 0.3 1018480
29 октября, пт
пт2900:00+8зюз410735 0.0 1019436
03:00+8з26795 0.0 1020361
06:00+7зюз36800 0.0 1021260
09:00+12сз59615 0.0 10231312
12:00+14ссз575158 0.0 10231895
15:00+12сз486529 0.1 1023612
18:00+10сз36733 0.0 1024376
21:00+8зсз248317 0.0 1024273